Weather Roundup
Issued by NWS Chicago, IL

Home | Current Version | Previous Version | Text Only | Print | Product List | Glossary Off
Versions: 1 2 3 4 5 6 7 8 9 10 11 12 13 14 15 16 17 18 19 20 21 22 23 24 25 26 27 28 29 30 31 32 33 34 35 36 37 38 39 40 41 42 43 44 45 46 47 48 49 50

497
NZUS59 KLOT 010004
HRRLOT

CHICAGO AREA WEATHER ROUNDUP
NATIONAL WEATHER SERVICE CHICAGO/ROMEOVILLE IL
700 PM CDT FRI SEP 30 2016

NOTE: "FAIR" INDICATES FEW OR NO CLOUDS BELOW 12,000 FEET WITH NO
SIGNIFICANT WEATHER AND/OR OBSTRUCTIONS TO VISIBILITY.

* THESE STATIONS ARE NOT UNDER NWS QUALITY CONTROL. THEY ALSO MAY NOT
  REPORT WEATHER SUCH AS PRECIPITATION OR FOG.

ILZ005-006-012>014-019>023-010100-
NORTHEAST ILLINOIS

CITY           SKY/WX    TMP DP  RH WIND       PRES   REMARKS
OHARE          CLOUDY    63  58  83 NE13      30.07F
6HR MIN TEMP:  63; 6HR MAX TEMP:  64; 6HR PCP: TRACE;

MIDWAY         LGT RAIN  64  58  80 NE14      30.07S
6HR MIN TEMP:  63; 6HR MAX TEMP:  66; 6HR PCP:  0.01;

AURORA         CLOUDY    64  58  80 NE13      30.08S
6HR MIN TEMP:  64; 6HR MAX TEMP:  67;

LANSING*       LGT RAIN  61  61 100 NE10      30.06S
JOLIET*        CLOUDY    64  60  85 NE9G16    30.06S
WAUKEGAN       CLOUDY    63  59  87 NE8       30.09S
6HR MIN TEMP:  63; 6HR MAX TEMP:  64;

DUPAGE AIRPORT CLOUDY    63  58  83 NE13      30.07S
6HR MIN TEMP:  63; 6HR MAX TEMP:  65; 6HR PCP: TRACE;

WHEELING       CLOUDY    63  58  83 NE9       30.09F
6HR MIN TEMP:  63; 6HR MAX TEMP:  65; 6HR PCP: TRACE;

KANKAKEE*      HVY RAIN  62  60  94 NE8G16    30.04F
MORRIS*        CLOUDY    64  58  83 CALM      30.05S
LEWIS AIRPORT* CLOUDY    62  61  96 NE12G20   30.06S
NORTHERLY ISL    N/A     61  58  90 NE16        N/A
$$

WIZ051-052-058>065-066-070>072-010100-
SOUTHEAST WISCONSIN

CITY           SKY/WX    TMP DP  RH WIND       PRES   REMARKS
MILWAUKEE      LGT RAIN  61  57  87 NE9       30.13S
6HR MIN TEMP:  60; 6HR MAX TEMP:  64; 6HR PCP: TRACE;

KENOSHA*       CLOUDY    62  59  90 NE13      30.11S
RACINE*        CLOUDY    63  58  83 NE14      30.13S
WAUKESHA       CLOUDY    57  55  94 NE8       30.15F
WEST BEND      CLOUDY    68  68 100 NE9       30.15S
$$

INZ001>003-010>013-019-020-010100-
NORTHWEST INDIANA

CITY           SKY/WX    TMP DP  RH WIND       PRES   REMARKS
GARY*          LGT RAIN  63  61  94 NE12G23   30.07S
MICHIGAN CITY* NOT AVBL
RENSSELAER*    NOT AVBL
VALPARAISO     LGT RAIN  60  58  92 NE10      30.05S
$$

LMZ740>746-010100-
SOUTHERN LAKE MICHIGAN

STATION/POSITION TIME  SKY/WX   TEMP WIND        PRES    VSBY
                                AIR  DIR/SP/G
                 (UTC)          (F)  (DEG/KT/KT) (MB)    (MI)
HARRISON CRIB    2330            64   70/ 22/ 24   N/A
BURNHAM HARBOR   2345            61   60/ 13/ 15   N/A
CALUMET HARBOR   2330            62   40/ 12/ 16   N/A
BURNS HARBOR     2340            62   50/ 19/ 23 1017.6F
MICHIGAN CITY    2330            61   20/ 17/ 18   N/A
$$

ABBREVIATIONS USED IN REMARKS
   TC - TEMPERATURE IN CELSIUS
  WCI - WIND CHILL INDEX
   HX - HEAT INDEX
  VSB - VISIBILITY
$$




USA.gov is the U.S. government's official web portal to all federal, state and local government web resources and services.